Home > Weather > Zagreb > Past weeks

Flag for Croatia Weather for the Past 2 Weeks in Zagreb, Croatia

Now
45 °F

Sunny.


Feels Like: 41 °F
Forecast: 46 / 55 °F
Wind: 6 mph from Southeast

Location: Zagreb / Pleso

Current Time: Feb 8, 2016 at 9:34:33 AM

Latest Report: Feb 8, 2016 at 9:00 AM


Visibility: 10 mi

Pressure: 29.98 "Hg

Humidity: 66%

Dew point: 34 °F

Location of ZagrebLocation

Historic Weather in Zagreb — Graph

°F

Zagreb Temperature Yesterday

Maximum temperature yesterday: 54 °F (at 12:30 PM)
Minimum temperature yesterday: 37 °F (at 6:30 AM)
Average temperature yesterday: 46 °F

High & Low Weather Summary for the Past Weeks

 TemperatureHumidityPressure
High63 °F (Jan 28, 1:30 PM)100% (Jan 30, 2:00 AM)30.60 "Hg (Jan 30, 2:00 AM)
Low19 °F (Jan 24, 8:00 AM)38% (Feb 7, 1:00 PM)29.83 "Hg (Feb 3, 4:30 PM)
Average44 °F73%30.22 "Hg
* Reported Jan 24 8:00 AM — Feb 8 8:30 AM, Zagreb, Weather by CustomWeather, © 2016

Note: Actual official high and low records may vary slightly from our data, if they occured in-between our weather recording intervals... More about our weather records

Advertising

Zagreb Weather History for the Previous 24 Hours

 ConditionsComfort  
Time TempWeatherWind HumidityBarometerVisibility
8:30 AM
Mon, Feb 8
43 °FPassing clouds.3 mph71%29.98 "HgN/A
8:00 AM41 °FSunny.6 mph76%29.98 "Hg10 mi
7:30 AM41 °FSunny.2 mph76%29.98 "Hg10 mi
7:00 AM41 °FClear.1 mph76%29.98 "Hg10 mi
6:30 AM41 °FClear.2 mph76%29.98 "Hg10 mi
6:00 AM41 °FClear.5 mph76%29.98 "Hg10 mi
5:30 AM41 °FClear.2 mph76%29.98 "Hg10 mi
5:00 AM41 °FPassing clouds.5 mph76%29.98 "HgN/A
4:30 AM39 °FClear.1 mph81%29.98 "Hg10 mi
4:00 AM39 °FClear.1 mph75%29.98 "Hg10 mi
3:30 AM41 °FClear.1 mph76%29.98 "Hg10 mi
3:00 AM41 °FLight rain. Clear.3 mph76%29.98 "HgN/A
2:00 AM41 °FClear.6 mph70%29.98 "Hg10 mi
1:30 AM43 °FClear.6 mph66%29.98 "Hg10 mi
1:00 AM43 °FClear.5 mph66%29.98 "Hg10 mi
12:00 AM45 °FPassing clouds.5 mph66%30.01 "HgN/A
11:30 PM
Sun, Feb 7
46 °FClear.7 mph62%30.01 "Hg10 mi
11:00 PM46 °FClear.3 mph57%30.01 "Hg10 mi
10:30 PM48 °FPassing clouds.3 mph58%30.01 "HgN/A
10:00 PM50 °FPassing clouds.5 mph54%30.01 "HgN/A
9:30 PM50 °FPassing clouds.9 mph54%30.01 "HgN/A
9:00 PM50 °FClear.14 mph54%30.01 "Hg10 mi
8:30 PM50 °FPassing clouds.10 mph54%30.01 "HgN/A
8:00 PM50 °FPassing clouds.10 mph50%29.98 "HgN/A
7:30 PM43 °FClear.2 mph66%29.98 "Hg10 mi
7:00 PM45 °FPassing clouds.3 mph61%29.98 "HgN/A
6:30 PM45 °FClear.2 mph66%29.98 "Hg10 mi
6:00 PM46 °FClear.5 mph57%29.98 "Hg10 mi
5:30 PM48 °FClear.1 mph54%29.98 "Hg10 mi
5:00 PM50 °FSunny.3 mph50%29.98 "Hg10 mi
4:30 PM50 °FSunny.7 mph50%29.98 "Hg10 mi
4:00 PM52 °FSunny.8 mph47%29.98 "Hg10 mi
3:30 PM52 °FSunny.9 mph47%29.98 "Hg10 mi
3:00 PM52 °FSunny.9 mph44%29.98 "Hg10 mi
2:30 PM54 °FSunny.10 mph41%30.01 "Hg10 mi
2:00 PM54 °FSunny.9 mph41%30.01 "Hg10 mi
1:30 PM54 °FPassing clouds.7 mph41%30.01 "HgN/A
1:00 PM54 °FPassing clouds.15 mph38%30.04 "HgN/A
12:30 PM54 °FPassing clouds.8 mph41%30.04 "HgN/A
12:00 PM52 °FPassing clouds.6 mph44%30.04 "HgN/A
11:30 AM52 °FPassing clouds.7 mph50%30.07 "HgN/A
11:00 AM50 °FPassing clouds.8 mph54%30.07 "HgN/A
10:30 AM50 °FPassing clouds.5 mph58%30.09 "HgN/A
10:00 AM48 °FPassing clouds.5 mph62%30.09 "HgN/A
9:30 AM46 °FPassing clouds.5 mph66%30.09 "HgN/A
9:00 AM46 °FPassing clouds.6 mph66%30.09 "HgN/A
Weather by CustomWeather, © 2016

See weather overviewHow to use our weather pages